Home > Time Zones > World Clock > Weather > Peru > Cuzco > Past weeks

Flag for Peru Weather past 2 weeks in Cuzco, Cusco, Peru

Now
70 °F

Passing clouds.


Feels Like: 70 °F
Forecast: N/A
Wind: No wind

Location: Cuzco Airport

Current Time: May 4, 2015 at 6:09:57 PM

Latest Report: May 4, 2015 at 5:00 PM


Visibility: N/A

Pressure: 30.33 "Hg

Humidity: 27%

Dew point: 34 °F

Location of CuzcoLocation

Historic Weather in Cuzco — Graph

°F

Cuzco temperature yesterday

Maximum temperature yesterday: 72 °F (at 2:00 PM)
Minimum temperature yesterday: 41 °F (at 6:00 AM)
Average temperature yesterday: 55 °F

Past Weeks' High & Low Weather Summary

 TemperatureHumidityPressure
High72 °F (May 2, 3:00 PM)88% (Apr 27, 2:00 AM)30.63 "Hg (Apr 27, 2:00 AM)
Low39 °F (Apr 26, 6:00 AM)20% (May 4, 2:00 PM)30.27 "Hg (May 2, 3:00 PM)
Average54 °F63%30.48 "Hg
* Reported Apr 19 5:00 PM — May 4 5:00 PM, Cuzco, Weather by CustomWeather, © 2015

Note: Actual official high and low records may vary slightly from our data, if they occured in-between our weather recording intervals... More about our weather records

Advertising

Cuzco weather history for previous 24 hours

 ConditionsComfort  
Time TempWeatherWind HumidityBarometerVisibility
5:00 PM
Mon, May 4
70 °FPassing clouds.No wind27%30.33 "HgN/A
4:00 PM70 °FPassing clouds.5 mph23%30.33 "HgN/A
3:00 PM68 °FPassing clouds.6 mph23%30.33 "HgN/A
2:00 PM70 °FPassing clouds.5 mph20%30.36 "HgN/A
1:00 PM68 °FScattered clouds.6 mph21%30.45 "HgN/A
12:00 PM64 °FScattered clouds.3 mph32%30.45 "HgN/A
11:00 AM64 °FScattered clouds.6 mph37%30.48 "HgN/A
10:00 AM61 °FScattered clouds.No wind45%30.54 "HgN/A
9:00 AM57 °FScattered clouds.3 mph55%30.54 "HgN/A
8:00 AM54 °FScattered clouds.2 mph58%30.54 "Hg6 mi
7:00 AM43 °FScattered clouds.3 mph87%30.51 "Hg6 mi
6:00 AM41 °FBroken clouds.2 mph81%30.48 "HgN/A
5:00 AM43 °FPassing clouds.No wind81%30.45 "HgN/A
4:00 AM41 °FClear.No wind81%30.45 "HgN/A
3:00 AM43 °FClear.No wind76%30.45 "HgN/A
2:00 AM43 °FClear.No wind81%30.45 "HgN/A
1:00 AM45 °FClear.No wind76%30.45 "HgN/A
12:00 AM46 °FClear.No wind76%30.45 "HgN/A
11:00 PM
Sun, May 3
46 °FClear.No wind76%30.45 "HgN/A
10:00 PM50 °FClear.No wind67%30.42 "HgN/A
9:00 PM52 °FPassing clouds.5 mph62%30.42 "HgN/A
8:00 PM54 °FPassing clouds.6 mph58%30.39 "HgN/A
7:00 PM59 °FPassing clouds.6 mph48%30.36 "HgN/A
Weather by CustomWeather, © 2015

See weather overviewHow to use our weather pages